TimeCDT,TemperatureF,Dew PointF,Humidity,Sea Level PressureIn,VisibilityMPH,Wind Direction,Wind SpeedMPH,Gust SpeedMPH,PrecipitationIn,Events,Conditions,WindDirDegrees,DateUTC
12:53 AM,63.0,16.0,16,29.57,10.0,SW,11.5,-,N/A,,Clear,220,2013-03-22 05:53:00
1:53 AM,63.0,16.0,16,29.56,10.0,SW,12.7,-,N/A,,Clear,230,2013-03-22 06:53:00
2:53 AM,61.0,17.1,18,29.57,10.0,SW,10.4,-,N/A,,Clear,220,2013-03-22 07:53:00
3:53 AM,61.0,17.1,18,29.57,10.0,SSW,9.2,-,N/A,,Clear,210,2013-03-22 08:53:00
4:53 AM,60.1,16.0,18,29.58,10.0,SW,10.4,-,N/A,,Clear,220,2013-03-22 09:53:00
5:53 AM,59.0,17.1,20,29.59,10.0,SW,10.4,-,N/A,,Clear,230,2013-03-22 10:53:00
6:53 AM,61.0,17.1,18,29.60,10.0,WSW,10.4,-,N/A,,Clear,240,2013-03-22 11:53:00
7:53 AM,54.0,19.0,25,29.63,10.0,SW,11.5,-,N/A,,Clear,220,2013-03-22 12:53:00
8:53 AM,64.0,19.0,18,29.64,10.0,SW,10.4,-,N/A,,Clear,220,2013-03-22 13:53:00
9:53 AM,72.0,19.9,14,29.65,10.0,SW,5.8,-,N/A,,Clear,230,2013-03-22 14:53:00
10:53 AM,71.1,21.0,15,29.67,10.0,North,5.8,-,N/A,,Clear,350,2013-03-22 15:53:00
11:53 AM,73.9,21.9,14,29.68,10.0,North,8.1,-,N/A,,Clear,10,2013-03-22 16:53:00
12:53 PM,75.0,21.9,14,29.68,10.0,NE,10.4,-,N/A,,Clear,40,2013-03-22 17:53:00
1:53 PM,77.0,21.9,13,29.65,10.0,North,5.8,-,N/A,,Clear,350,2013-03-22 18:53:00
2:53 PM,78.1,27.0,15,29.62,10.0,North,11.5,-,N/A,,Clear,360,2013-03-22 19:53:00
3:53 PM,77.0,30.9,19,29.59,10.0,North,10.4,-,N/A,,Clear,350,2013-03-22 20:53:00
4:53 PM,77.0,32.0,19,29.59,10.0,NNE,11.5,19.6,N/A,,Clear,20,2013-03-22 21:53:00
5:53 PM,75.9,30.9,19,29.59,10.0,NE,6.9,-,N/A,,Clear,40,2013-03-22 22:53:00
6:53 PM,73.9,30.9,21,29.58,10.0,East,12.7,-,N/A,,Clear,80,2013-03-22 23:53:00
7:53 PM,70.0,30.0,23,29.60,10.0,East,10.4,-,N/A,,Clear,80,2013-03-23 00:53:00
8:53 PM,64.9,30.9,28,29.59,10.0,East,9.2,-,N/A,,Clear,100,2013-03-23 01:53:00
9:53 PM,61.0,30.9,32,29.61,10.0,ENE,8.1,-,N/A,,Clear,70,2013-03-23 02:53:00
10:53 PM,61.0,33.1,35,29.64,10.0,East,8.1,-,N/A,,Clear,90,2013-03-23 03:53:00
11:53 PM,61.0,33.1,35,29.63,10.0,SSE,9.2,-,N/A,,Clear,150,2013-03-23 04:53:00